TimeEDT,TemperatureF,Dew PointF,Humidity,Sea Level PressureIn,VisibilityMPH,Wind Direction,Wind SpeedMPH,Gust SpeedMPH,PrecipitationIn,Events,Conditions,WindDirDegrees,DateUTC
12:56 AM,75.9,72.0,87,30.04,10.0,West,8.1,-,N/A,,Clear,260,2013-07-22 04:56:00
1:56 AM,75.9,72.0,87,30.02,10.0,WSW,9.2,-,N/A,,Clear,250,2013-07-22 05:56:00
2:56 AM,75.9,72.0,87,30.00,10.0,WSW,10.4,-,N/A,,Clear,250,2013-07-22 06:56:00
3:56 AM,75.0,72.0,90,29.97,10.0,WSW,10.4,-,N/A,,Clear,250,2013-07-22 07:56:00
4:56 AM,75.0,72.0,90,29.96,10.0,WSW,9.2,-,N/A,,Clear,250,2013-07-22 08:56:00
5:56 AM,75.0,72.0,90,29.98,10.0,WSW,8.1,-,N/A,,Clear,250,2013-07-22 09:56:00
6:56 AM,73.9,71.1,91,30.00,10.0,West,6.9,-,N/A,,Mostly Cloudy,270,2013-07-22 10:56:00
7:48 AM,75.9,72.0,87,30.01,10.0,West,6.9,-,N/A,,Mostly Cloudy,260,2013-07-22 11:48:00
7:56 AM,75.9,72.0,87,30.02,10.0,West,6.9,-,N/A,,Mostly Cloudy,270,2013-07-22 11:56:00
8:03 AM,75.9,72.0,87,30.02,10.0,West,9.2,-,N/A,,Mostly Cloudy,270,2013-07-22 12:03:00
8:56 AM,75.9,72.0,87,30.04,10.0,WNW,5.8,-,N/A,,Mostly Cloudy,290,2013-07-22 12:56:00
9:03 AM,75.9,72.0,87,30.04,10.0,WNW,8.1,-,N/A,,Overcast,290,2013-07-22 13:03:00
9:26 AM,77.0,72.0,84,30.05,10.0,West,9.2,-,N/A,,Overcast,280,2013-07-22 13:26:00
9:56 AM,78.1,72.0,81,30.05,10.0,West,9.2,-,N/A,,Mostly Cloudy,280,2013-07-22 13:56:00
10:07 AM,78.1,72.0,81,30.05,10.0,West,6.9,-,N/A,,Overcast,280,2013-07-22 14:07:00
10:33 AM,79.0,72.0,79,30.05,10.0,NW,8.1,-,N/A,,Overcast,310,2013-07-22 14:33:00
10:56 AM,80.1,72.0,76,30.05,10.0,West,10.4,-,N/A,,Mostly Cloudy,280,2013-07-22 14:56:00
11:08 AM,79.0,72.0,79,30.05,10.0,West,9.2,18.4,N/A,,Overcast,280,2013-07-22 15:08:00
11:23 AM,81.0,72.0,74,30.05,10.0,WNW,11.5,-,N/A,,Overcast,290,2013-07-22 15:23:00
11:56 AM,82.0,72.0,71,30.05,10.0,WNW,6.9,-,N/A,,Mostly Cloudy,290,2013-07-22 15:56:00
12:14 PM,82.9,72.0,69,30.05,10.0,WNW,11.5,18.4,N/A,,Mostly Cloudy,290,2013-07-22 16:14:00
12:56 PM,84.0,72.0,67,30.04,10.0,West,10.4,-,N/A,,Mostly Cloudy,280,2013-07-22 16:56:00
1:56 PM,87.1,72.0,61,30.01,10.0,West,16.1,-,N/A,,Scattered Clouds,260,2013-07-22 17:56:00
2:56 PM,88.0,70.0,55,30.00,10.0,West,15.0,-,N/A,,Mostly Cloudy,280,2013-07-22 18:56:00
3:56 PM,89.1,71.1,55,29.98,10.0,West,12.7,21.9,N/A,,Mostly Cloudy,260,2013-07-22 19:56:00
4:56 PM,89.1,70.0,53,29.97,10.0,WSW,16.1,23.0,N/A,,Mostly Cloudy,250,2013-07-22 20:56:00
5:56 PM,82.0,73.0,74,29.97,1.0,WNW,18.4,28.8,0.14,Rain,Light Rain,300,2013-07-22 21:56:00
6:03 PM,80.1,73.0,79,29.97,10.0,SSW,6.9,28.8,0.03,Thunderstorm,Thunderstorm,210,2013-07-22 22:03:00
6:56 PM,79.0,73.0,82,29.96,10.0,SW,11.5,18.4,0.03,,Mostly Cloudy,220,2013-07-22 22:56:00
7:56 PM,78.1,70.0,76,29.95,10.0,West,10.4,-,N/A,,Mostly Cloudy,260,2013-07-22 23:56:00
8:56 PM,77.0,70.0,79,29.96,10.0,WSW,9.2,-,N/A,,Mostly Cloudy,250,2013-07-23 00:56:00
9:56 PM,78.1,73.0,84,29.96,10.0,SW,11.5,-,N/A,,Scattered Clouds,230,2013-07-23 01:56:00
10:56 PM,78.1,73.0,84,29.96,10.0,SW,10.4,-,N/A,,Scattered Clouds,230,2013-07-23 02:56:00
11:56 PM,78.1,72.0,81,29.96,10.0,WSW,12.7,-,N/A,,Clear,240,2013-07-23 03:56:00